| time (UTC) | temp F | wind direction | speed knots | gust knots | rain 1hr in | rain 24hr in | rain mn in | humidity % | barometer mb |
| 20260509223024 | 90 | 236 | 0.0 | 0.0 | 0.00 | 0.01 | 0.01 | 46 | 1004.3 |
| 20260509221523 | 90 | 233 | 0.0 | 0.0 | 0.00 | 0.01 | 0.01 | 48 | 1004.4 |
| 20260509220019 | 90 | 235 | 0.0 | 0.0 | 0.00 | 0.01 | 0.01 | 47 | 1004.5 |
| 20260509214518 | 89 | 237 | 0.0 | 0.0 | 0.00 | 0.01 | 0.01 | 50 | 1004.6 |
| 20260509213016 | 89 | 195 | 0.0 | 0.0 | 0.00 | 0.01 | 0.01 | 51 | 1004.7 |
| 20260509211512 | 89 | 197 | 0.0 | 0.0 | 0.00 | 0.01 | 0.01 | 50 | 1005.0 |
| 20260509210017 | 88 | 198 | 0.0 | 1.7 | 0.00 | 0.01 | 0.01 | 50 | 1005.3 |
| 20260509204509 | 88 | 146 | 0.0 | 0.9 | 0.00 | 0.01 | 0.01 | 50 | 1005.6 |
| 20260509203007 | 88 | 204 | 0.0 | 0.0 | 0.00 | 0.01 | 0.01 | 52 | 1005.8 |
| 20260509201505 | 87 | 227 | 0.0 | 0.0 | 0.00 | 0.01 | 0.01 | 53 | 1006.0 |
| 20260509200003 | 87 | 225 | 0.0 | 0.0 | 0.00 | 0.01 | 0.01 | 53 | 1006.2 |
| 20260509194600 | 87 | 173 | 0.0 | 0.0 | 0.00 | 0.01 | 0.01 | 50 | 1006.5 |
| 20260509193115 | 86 | 148 | 0.0 | 0.0 | 0.00 | 0.01 | 0.01 | 51 | 1006.8 |
| 20260509191557 | 86 | 259 | 0.0 | 0.0 | 0.00 | 0.01 | 0.01 | 54 | 1007.0 |
| 20260509190057 | 85 | 257 | 0.0 | 0.0 | 0.00 | 0.01 | 0.01 | 54 | 1007.1 |
| 20260509184607 | 85 | 191 | 0.0 | 0.0 | 0.00 | 0.01 | 0.01 | 57 | 1007.3 |
| 20260509183052 | 85 | 192 | 0.0 | 0.0 | 0.00 | 0.01 | 0.01 | 57 | 1007.5 |
| 20260509181552 | 84 | 246 | 0.0 | 0.0 | 0.00 | 0.01 | 0.01 | 54 | 1007.7 |
| 20260509180048 | 84 | 259 | 0.0 | 0.0 | 0.00 | 0.01 | 0.01 | 55 | 1007.9 |
| 20260509174546 | 84 | 197 | 0.0 | 0.0 | 0.00 | 0.01 | 0.01 | 57 | 1008.1 |
| 20260509173054 | 84 | 307 | 0.0 | 0.0 | 0.00 | 0.01 | 0.01 | 54 | 1008.3 |
| 20260509171548 | 83 | 307 | 0.0 | 0.0 | 0.00 | 0.01 | 0.01 | 54 | 1008.3 |
| 20260509170040 | 82 | 307 | 0.0 | 0.0 | 0.00 | 0.01 | 0.01 | 55 | 1008.4 |
| 20260509164538 | 81 | 307 | 0.0 | 0.0 | 0.00 | 0.01 | 0.01 | 57 | 1008.4 |
| 20260509163033 | 80 | 307 | 0.0 | 0.0 | 0.00 | 0.01 | 0.01 | 58 | 1008.8 |
| 20260509161534 | 79 | 307 | 0.0 | 0.0 | 0.00 | 0.01 | 0.01 | 59 | 1008.9 |
| 20260509160029 | 78 | 307 | 0.0 | 0.0 | 0.00 | 0.01 | 0.01 | 60 | 1008.9 |
| 20260509154529 | 78 | 306 | 0.0 | 0.0 | 0.00 | 0.01 | 0.01 | 62 | 1008.8 |
| 20260509153025 | 77 | 305 | 0.0 | 0.0 | 0.00 | 0.01 | 0.01 | 65 | 1008.7 |
| 20260509151522 | 77 | 304 | 0.0 | 0.0 | 0.00 | 0.01 | 0.01 | 67 | 1008.7 |
| 20260509150018 | 75 | 303 | 0.0 | 0.0 | 0.00 | 0.01 | 0.01 | 70 | 1008.4 |
| 20260509144518 | 74 | 303 | 0.0 | 0.0 | 0.00 | 0.01 | 0.01 | 71 | 1008.3 |
| 20260509143022 | 73 | 78 | 0.0 | 0.0 | 0.00 | 0.01 | 0.01 | 75 | 1008.3 |
| 20260509141522 | 73 | 78 | 0.0 | 0.0 | 0.00 | 0.01 | 0.01 | 71 | 1008.3 |
| 20260509140013 | 74 | 78 | 0.0 | 0.0 | 0.00 | 0.01 | 0.01 | 70 | 1008.3 |
| 20260509134510 | 72 | 78 | 0.0 | 0.0 | 0.00 | 0.01 | 0.01 | 75 | 1008.3 |
| 20260509133006 | 70 | 78 | 0.0 | 0.0 | 0.00 | 0.01 | 0.01 | 81 | 1008.3 |
| 20260509131506 | 67 | 83 | 0.0 | 0.0 | 0.00 | 0.01 | 0.01 | 89 | 1008.2 |
| 20260509130002 | 66 | 82 | 0.0 | 0.0 | 0.00 | 0.01 | 0.01 | 89 | 1008.0 |
| 20260509124503 | 66 | 82 | 0.0 | 0.0 | 0.00 | 0.01 | 0.01 | 88 | 1007.8 |
| 20260509123002 | 66 | 82 | 0.0 | 0.0 | 0.00 | 0.01 | 0.01 | 86 | 1007.4 |
| 20260509121606 | 65 | 82 | 0.0 | 0.0 | 0.00 | 0.01 | 0.01 | 89 | 1007.1 |
| 20260509120108 | 64 | 190 | 0.0 | 0.0 | 0.00 | 0.01 | 0.01 | 88 | 1005.0 |
| 20260509114603 | 64 | 172 | 0.0 | 0.0 | 0.00 | 0.01 | 0.01 | 87 | 1006.4 |
| 20260509113056 | 64 | 172 | 0.0 | 0.9 | 0.00 | 0.01 | 0.01 | 87 | 1006.2 |
| 20260509111554 | 65 | 72 | 0.0 | 0.0 | 0.00 | 0.01 | 0.01 | 85 | 1006.8 |
| 20260509110053 | 66 | 72 | 0.0 | 0.0 | 0.00 | 0.01 | 0.01 | 83 | 1006.9 |
| 20260509104551 | 67 | 71 | 0.0 | 0.9 | 0.00 | 0.01 | 0.01 | 84 | 1006.8 |
| 20260509103049 | 66 | 86 | 0.0 | 0.9 | 0.00 | 0.01 | 0.01 | 88 | 1007.1 |
| 20260509101550 | 65 | 62 | 0.0 | 1.7 | 0.00 | 0.01 | 0.01 | 88 | 1008.3 |
| 20260509100054 | 65 | 327 | 0.0 | 0.0 | 0.00 | 0.01 | 0.01 | 91 | 1009.2 |
| 20260509094550 | 65 | 40 | 0.0 | 2.6 | 0.00 | 0.01 | 0.01 | 94 | 1010.0 |
| 20260509093044 | 66 | 346 | 0.0 | 0.9 | 0.00 | 0.01 | 0.01 | 96 | 1010.0 |
| 20260509091542 | 66 | 90 | 0.0 | 0.0 | 0.00 | 0.01 | 0.01 | 96 | 1009.8 |
| 20260509090040 | 66 | 91 | 0.0 | 0.0 | 0.00 | 0.01 | 0.01 | 96 | 1009.1 |
| 20260509084539 | 65 | 91 | 0.0 | 0.0 | 0.00 | 0.01 | 0.01 | 96 | 1009.0 |
| 20260509083041 | 66 | 91 | 0.0 | 0.0 | 0.00 | 0.01 | 0.01 | 96 | 1008.6 |
| 20260509081543 | 66 | 91 | 0.0 | 0.0 | 0.00 | 0.01 | 0.01 | 96 | 1008.7 |
| 20260509080037 | 66 | 91 | 0.0 | 0.0 | 0.00 | 0.01 | 0.01 | 95 | 1008.2 |
| 20260509074537 | 66 | 91 | 0.0 | 0.0 | 0.00 | 0.01 | 0.01 | 95 | 1008.1 |
| 20260509073033 | 67 | 91 | 0.0 | 0.0 | 0.00 | 0.01 | 0.01 | 96 | 1008.1 |
| 20260509071535 | 67 | 91 | 0.0 | 0.0 | 0.00 | 0.01 | 0.01 | 96 | 1008.0 |
| 20260509070030 | 65 | 91 | 0.0 | 0.0 | 0.01 | 0.01 | 0.01 | 96 | 1008.0 |
| 20260509064530 | 64 | 91 | 0.0 | 0.0 | 0.01 | 0.01 | 0.01 | 95 | 1008.2 |
| 20260509063030 | 64 | 91 | 0.0 | 0.0 | 0.01 | 0.01 | 0.01 | 95 | 1008.3 |
| 20260509061528 | 65 | 91 | 0.0 | 0.0 | 0.01 | 0.01 | 0.01 | 94 | 1008.2 |
| 20260509060029 | 66 | 91 | 0.0 | 0.0 | 0.00 | 0.00 | 0.00 | 95 | 1008.1 |
| 20260509054525 | 66 | 91 | 0.0 | 0.0 | 0.00 | 0.00 | 0.00 | 95 | 1007.9 |
| 20260509053028 | 66 | 91 | 0.0 | 0.0 | 0.00 | 0.00 | 0.00 | 96 | 1007.5 |
| 20260509051528 | 63 | 91 | 0.0 | 0.0 | 0.00 | 0.00 | 0.00 | 94 | 1007.6 |
| 20260509050021 | 63 | 91 | 0.0 | 0.0 | 0.00 | 0.00 | 0.00 | 94 | 1008.0 |
| 20260509044515 | 63 | 91 | 0.0 | 0.0 | 0.00 | 0.00 | 0.00 | 94 | 1007.7 |
| 20260509043015 | 63 | 91 | 0.0 | 0.0 | 0.00 | 0.00 | 0.00 | 94 | 1007.7 |
| 20260509041514 | 63 | 91 | 0.0 | 0.0 | 0.00 | 0.00 | 0.00 | 93 | 1007.5 |
| 20260509040016 | 63 | 91 | 0.0 | 0.0 | 0.00 | 0.00 | 0.00 | 93 | 1007.6 |
| 20260509034515 | 64 | 91 | 0.0 | 0.0 | 0.00 | 0.00 | 0.00 | 93 | 1007.4 |
| 20260509033013 | 64 | 91 | 0.0 | 0.0 | 0.00 | 0.00 | 0.00 | 92 | 1007.5 |
| 20260509031514 | 65 | 91 | 0.0 | 0.0 | 0.00 | 0.00 | 0.00 | 92 | 1007.2 |
| 20260509030011 | 66 | 91 | 0.0 | 0.0 | 0.00 | 0.00 | 0.00 | 91 | 1006.9 |
| 20260509024511 | 66 | 91 | 0.0 | 0.0 | 0.00 | 0.00 | 0.00 | 91 | 1006.5 |
| 20260509023015 | 67 | 91 | 0.0 | 0.0 | 0.00 | 0.00 | 0.00 | 90 | 1006.5 |
| 20260509021515 | 68 | 91 | 0.0 | 0.0 | 0.00 | 0.00 | 0.00 | 88 | 1006.2 |
| 20260509020009 | 69 | 91 | 0.0 | 0.0 | 0.00 | 0.00 | 0.00 | 88 | 1006.1 |
| 20260509014510 | 70 | 91 | 0.0 | 0.0 | 0.00 | 0.00 | 0.00 | 87 | 1006.0 |
| 20260509013028 | 71 | 91 | 0.0 | 0.0 | 0.00 | 0.00 | 0.00 | 86 | 1005.8 |
| 20260509011509 | 72 | 91 | 0.0 | 0.0 | 0.00 | 0.00 | 0.00 | 84 | 1005.7 |
| 20260509010007 | 73 | 91 | 0.0 | 0.0 | 0.00 | 0.00 | 0.00 | 83 | 1005.8 |
| 20260509004507 | 73 | 91 | 0.0 | 0.0 | 0.00 | 0.00 | 0.00 | 83 | 1005.9 |
| 20260509003007 | 73 | 91 | 0.0 | 0.0 | 0.00 | 0.00 | 0.00 | 82 | 1006.1 |
| 20260509001507 | 74 | 89 | 0.0 | 0.0 | 0.00 | 0.00 | 0.00 | 81 | 1006.0 |
| 20260509000007 | 74 | 88 | 0.0 | 0.0 | 0.00 | 0.00 | 0.00 | 80 | 1005.9 |
| 20260508234506 | 75 | 91 | 0.0 | 0.0 | 0.00 | 0.03 | 0.00 | 79 | 1005.8 |
| 20260508233004 | 75 | 179 | 0.0 | 0.0 | 0.00 | 0.03 | 0.00 | 79 | 1005.7 |
| 20260508231503 | 76 | 182 | 0.0 | 0.0 | 0.00 | 0.03 | 0.00 | 77 | 1005.7 |
| 20260508230001 | 76 | 129 | 0.0 | 0.0 | 0.00 | 0.03 | 0.00 | 77 | 1005.7 |
| 20260508224609 | 76 | 90 | 0.0 | 0.0 | 0.00 | 0.05 | 0.00 | 78 | 1006.0 |